Regional Weather Roundup
Issued by NWS Charleston, WV

Home | Current Version | Previous Version | Text Only | Print | Product List | Glossary Off
Versions: 1 2 3 4 5 6 7 8 9 10 11 12 13 14 15 16 17 18 19 20 21 22 23 24 25 26 27 28 29 30 31 32 33 34 35 36 37 38 39 40 41 42 43 44 45 46 47 48 49 50

893
ASUS41 KRLX 280110
RWRRLX
West Virginia Regional Weather Roundup
National Weather Service Charleston WV
900 PM EDT THU JUL 27 2017

Note: "fair" indicates few or no clouds below 12,000 feet with no
significant weather and/or obstructions to visibility.

WVZ003-280200-
Northern Panhandle of West Virginia

CITY           SKY/WX    TMP DP  RH WIND       PRES   REMARKS
WHEELING       MOCLDY    72  67  84 W5        29.92R
$$

WVZ009-280200-
Northwest West Virginia

CITY           SKY/WX    TMP DP  RH WIND       PRES   REMARKS
PARKERSBURG    RAIN      72  70  93 CALM      29.93S FOG
$$

WVZ006-280200-
Western West Virginia

CITY           SKY/WX    TMP DP  RH WIND       PRES   REMARKS
HUNTINGTON     LGT RAIN  72  70  93 VRB6      29.90F
$$

WVZ015-280200-
West Central West Virginia

CITY           SKY/WX    TMP DP  RH WIND       PRES   REMARKS
CHARLESTON     LGT RAIN  72  69  90 S5        29.92F
$$

WVZ022-031-280200-
North Central West Virginia

CITY           SKY/WX    TMP DP  RH WIND       PRES   REMARKS
CLARKSBURG     LGT RAIN  71  68  90 CALM      29.94S
MORGANTOWN     CLOUDY    72  67  84 SW6       29.94S
$$

WVZ025-035-042-045-280200-
Southern West Virginia

CITY           SKY/WX    TMP DP  RH WIND       PRES   REMARKS
BECKLEY        CLOUDY    68  66  93 SW5       30.01F
LOGAN          MOCLDY    70  70 100 CALM      29.97R
BLUEFIELD      CLOUDY    66  64  93 W6        30.06S
LEWISBURG      LGT RAIN  68  67  97 CALM      30.01F
$$

WVZ047-280200-
Northern Mountains of West Virginia

CITY           SKY/WX    TMP DP  RH WIND       PRES   REMARKS
ELKINS         LGT RAIN  69  66  90 CALM      29.98S
$$

WVZ052-280200-
Eastern Panhandle of West Virginia

CITY           SKY/WX    TMP DP  RH WIND       PRES   REMARKS
MARTINSBURG    CLOUDY    75  70  84 CALM      29.86F
PETERSBURG     CLOUDY    74  73  96 CALM      29.91F
$$




USA.gov is the U.S. government's official web portal to all federal, state and local government web resources and services.